Regional Weather Roundup
Issued by NWS Memphis, TN

Home | Current Version | Previous Version | Text Only | Print | Product List | Glossary On
Versions: 1 2 3 4 5 6 7 8 9 10 11 12 13 14 15 16 17 18 19 20 21 22 23 24 25 26 27 28 29 30 31 32 33 34 35 36 37 38 39 40 41 42 43 44 45 46 47 48 49 50
000
ASUS44 KMEG 100910
RWRMEG
MEMPHIS CWA HOURLY WEATHER ROUNDUP
NATIONAL WEATHER SERVICE MEMPHIS TN
300 AM CST SAT DEC 10 2016

...WEST TENNESSEE...

CITY           SKY/WX    TMP DP  RH WIND       PRES   REMARKS
MEMPHIS INTL   CLEAR     26  18  71 E5        30.57F WCI  20
NWS MEMPHIS      N/A     21 N/A N/A MISG        N/A
JACKSON        CLEAR     19  16  88 CALM      30.59R
BOLIVAR        CLEAR     18  16  93 CALM      30.57S
LEXINGTON      CLEAR     18  16  93 CALM      30.56S
DYERSBURG      CLEAR     21  19  93 CALM      30.59S
UNION CITY     CLEAR     18  16  93 CALM      30.58F
PARIS          CLEAR     14  12  92 CALM      30.58S
HUNTINGDON     CLEAR     18  16  93 CALM      30.58R


...EASTERN ARKANSAS...

CITY           SKY/WX    TMP DP  RH WIND       PRES   REMARKS
JONESBORO      CLEAR     22  20  92 CALM      30.60R
WEST MEMPHIS   CLEAR     23  20  88 CALM      30.58S
BATESVILLE     CLEAR     21  16  79 CALM      30.59S
NEWPORT        CLEAR     23  21  92 NW3       30.61R
WALNUT RIDGE   CLEAR     25  19  80 CALM      30.58S
BLYTHEVILLE    CLEAR     24  20  84 CALM      30.61R
SEARCY         CLEAR     19  18  95 CALM      30.62R
STUTTGART      CLEAR     28  18  64 SE3       30.59S
PINE BLUFF     CLOUDY    25  22  88 CALM      30.59S
MONTICELLO     CLEAR     25  22  88 CALM      30.58S


...NORTH MISSISSIPPI...

CITY           SKY/WX    TMP DP  RH WIND       PRES   REMARKS
TUPELO         CLEAR     23  17  78 N5        30.57F WCI  17
OXFORD         CLEAR     19  18  93 CALM      30.58F
BATESVILLE     CLEAR     21  20  96 CALM      30.59F
TUNICA         CLEAR     27  21  80 CALM      30.60S
CLARKSDALE     CLEAR     27  25  93 CALM      30.59F
CORINTH        CLEAR     21  18  86 CALM      30.56F
GREENWOOD      CLEAR     24  19  81 CALM      30.58S
COLUMBUS       CLEAR     24  21  86 CALM      30.56S
STARKVILLE     CLEAR     23  21  93 CALM      30.58S
GOLDEN TRIANGL CLEAR     23  18  80 CALM      30.52S


...SOUTHEAST MISSOURI...

CITY           SKY/WX    TMP DP  RH WIND       PRES   REMARKS
KENNETT        CLEAR     23  21  93 CALM      30.59F
WEST PLAINS    CLEAR     21  13  71 S3        30.52S
POPLAR BLUFF   CLEAR     20  18  92 CALM      30.59S
CAPE GIRARDEAU CLEAR     19  16  88 CALM      30.60R


...NORTHWEST ALABAMA...

CITY           SKY/WX    TMP DP  RH WIND       PRES   REMARKS
MUSCLE SHOALS  CLEAR     24  19  81 CALM      30.57S


...MIDDLE TENNESSEE...

CITY           SKY/WX    TMP DP  RH WIND       PRES   REMARKS
NASHVILLE      CLEAR     23  15  71 CALM      30.58F
CLARKSVILLE    CLEAR     19  14  81 CALM      30.59S
COLUMBIA       CLEAR     19  19 100 CALM      30.55S


...WESTERN KENTUCKY...

CITY           SKY/WX    TMP DP  RH WIND       PRES   REMARKS
PADUCAH        CLEAR     17  12  80 CALM      30.59S
FORT CAMPBELL  CLEAR     20  15  82 CALM      30.58S


...CENTRAL ARKANSAS...

CITY           SKY/WX    TMP DP  RH WIND       PRES   REMARKS
LITTLE ROCK    CLOUDY    23  22  96 CALM      30.59F


SKY/WX REPORTED AS FAIR MEANS FEW OR NO CLOUDS BELOW
12 THOUSAND FEET.




USA.gov is the U.S. government's official web portal to all federal, state and local government web resources and services.